アトラス彗星

P/2021 Q5 ( ATLAS )

English version
Home page
Updated on October 6, 2021

---------------------------------------------------------------------

・ プロフィール

発見日 2021年8月29日
発見光度 17.5等
発見者 Asteroid Terrestrial-Impact Last Alert System (ATLAS) search program

・ 写真集

・ 軌道要素

Epoch 2021 Aug. 14.0 TT = JDT 2459440.5                                         
T 2021 Aug. 30.34197 TT                                 Rudenko                 
q   1.2327067            (2000.0)            P               Q                  
n   0.16993306     Peri.  180.81113     +0.49246292     -0.85536096             
a   3.2281284      Node   239.70035     +0.79956000     +0.51758596             
e   0.6181358      Incl.   10.72954     +0.34377911     +0.02150370             
P   5.80                                                                        
From 92 observations 2021 Aug. 29-Sept. 5, mean residual 0".6.                  

・ 星図

・ 光度変化

        m1 = 13.0 + 5 logΔ + 10.0 log r

---------------------------------------------------------------------

軌道要素はM.P.E.C. 2021-R98に掲載されたものです。
星図はステラナビゲータ Ver.10 (アストロアーツ) で作成したものです。
光度グラフはComet for Windowsで作成したものです。

---------------------------------------------------------------------

Copyright(C) Seiichi Yoshida (comet@aerith.net). All rights reserved.